Theta_e
319 322 323 324 325 324 320 313 310 311 312 314 316 320 323 319 317 319 319 316 314 314 314 313 314 314 315 316 314 312 311 312 312 312 311 312 313 314 316 318 322 325 324 322 324 328 330 332 333 333 333 334 335 335 335 336 335 335 335 335 335 334 334 334 334 334 335 335 336 335 334 334 334 334 335 334 334 334 334 333 332 332 332 332 331 331
319 322 323 323 323 320 316 311 309 310 310 311 314 317 319 319 317 316 317 315 313 314 314 314 313 313 314 315 312 311 312 313 313 313 313 312 311 312 315 316 320 321 320 320 321 324 328 331 332 333 333 333 334 335 336 336 336 335 335 335 335 335 334 334 334 334 334 335 335 335 334 333 333 334 334 334 334 334 333 333 332 331 331 331 331 331
319 322 322 320 319 316 313 310 308 310 310 311 313 315 317 319 318 314 314 315 313 313 316 315 313 313 314 313 312 312 313 313 312 312 312 312 311 311 312 314 316 318 319 321 320 320 326 329 331 332 333 333 334 335 335 336 336 335 335 335 334 335 335 334 335 334 334 334 334 335 334 332 332 333 333 334 333 333 333 333 332 332 332 332 331 331
320 320 319 317 315 314 313 310 308 309 310 311 313 315 316 318 318 315 314 314 314 313 316 317 315 315 314 313 314 313 312 312 312 312 311 312 312 311 311 312 313 316 318 319 319 318 321 326 329 330 332 333 334 334 334 335 335 335 335 335 334 334 334 334 334 334 334 334 334 334 334 332 331 332 332 333 334 333 333 333 333 332 332 332 332 331
319 318 316 315 314 314 313 311 309 309 309 312 314 315 318 319 318 317 315 314 314 312 313 316 314 317 318 315 315 315 311 311 312 313 312 312 313 313 312 312 312 314 315 317 320 318 318 323 327 329 331 332 332 333 333 334 334 335 334 335 335 334 334 334 334 334 334 334 334 334 334 333 332 332 333 333 334 333 333 333 332 332 331 331 331 331
317 315 314 314 314 314 313 311 311 310 310 312 315 316 317 318 318 318 317 315 314 314 315 314 313 323 329 319 314 314 312 313 312 312 314 312 312 313 314 313 314 314 314 316 318 316 316 321 325 328 330 330 332 332 333 333 333 334 334 334 334 334 334 334 334 334 334 333 333 334 334 334 333 332 332 332 332 332 332 331 330 330 330 331 331 332
315 313 313 314 315 315 314 311 311 311 310 311 316 318 316 316 318 319 317 316 318 317 314 312 315 325 327 320 316 314 312 314 313 312 314 312 311 312 312 314 315 314 316 318 317 314 315 320 323 325 328 329 331 332 332 333 333 333 333 333 333 334 334 334 334 334 333 333 333 333 334 334 333 332 331 331 330 330 330 330 330 330 331 331 332 332
313 313 314 315 316 315 314 312 311 311 311 313 320 323 317 315 319 318 316 320 323 317 313 314 317 318 317 317 316 312 311 313 312 311 313 312 312 312 311 313 315 315 316 318 320 317 314 316 321 324 327 329 331 332 332 332 333 333 333 333 333 333 333 334 334 333 333 333 332 332 332 333 332 332 331 330 330 330 330 330 331 331 331 331 332 331
312 315 316 314 315 315 314 313 312 311 312 318 324 322 316 314 318 318 316 323 323 315 316 318 315 315 319 324 319 312 312 314 313 311 312 312 312 311 312 313 315 317 316 317 319 316 311 312 318 323 325 327 329 330 331 332 333 333 333 333 333 333 333 333 333 333 333 333 332 332 332 332 332 331 331 330 330 330 330 330 330 330 330 330 330 329
313 316 317 314 315 315 314 313 314 313 312 318 321 320 320 319 319 317 317 322 318 314 319 320 314 313 321 329 321 311 312 316 317 313 310 311 312 312 313 314 319 324 323 322 318 310 308 311 314 317 320 323 325 327 328 330 331 332 333 333 333 333 334 333 333 333 333 333 332 332 332 332 331 331 331 330 330 330 329 329 328 328 328 328 327 327
313 313 316 316 316 315 313 314 318 319 315 316 320 320 319 323 325 326 330 327 316 316 324 323 317 312 315 325 320 313 315 316 316 316 312 312 313 314 315 318 325 330 328 328 322 311 308 311 311 312 315 316 317 319 320 322 324 327 330 331 332 333 334 334 333 334 333 333 333 332 332 332 331 331 330 329 329 329 328 328 327 327 327 326 326 325
312 313 317 317 317 315 313 314 317 319 316 317 325 322 318 324 328 330 331 322 316 322 326 321 316 312 314 320 319 316 317 316 314 316 316 315 314 314 319 324 327 329 328 328 327 319 311 310 311 311 312 312 312 312 313 314 317 321 324 327 329 331 332 333 333 334 334 333 333 332 332 332 331 331 330 330 328 327 327 327 326 326 326 325 325 324
314 318 320 317 316 314 314 315 315 316 316 316 322 320 319 322 320 321 324 318 319 322 316 313 314 314 316 317 317 318 319 317 315 313 314 314 315 319 324 326 326 325 328 327 326 325 317 310 311 312 312 312 311 311 311 311 313 317 321 324 327 328 330 331 332 333 333 332 332 332 331 331 331 330 330 329 328 327 326 326 325 325 324 324 324 323
317 321 320 318 315 312 314 315 315 319 316 314 315 316 321 324 316 317 320 317 319 320 313 310 313 317 319 316 316 318 315 314 314 313 315 314 315 322 323 323 324 322 324 325 324 327 320 310 309 312 312 312 312 312 311 311 312 315 320 324 326 327 328 329 330 331 331 331 330 330 330 330 329 329 328 327 327 326 325 325 324 322 322 321 321 320
318 319 317 317 315 312 314 314 317 322 319 316 317 316 323 328 323 319 320 321 322 321 314 310 314 322 321 314 313 314 311 311 314 317 317 315 316 319 320 321 323 322 321 321 321 321 314 308 310 313 313 313 313 312 312 311 311 313 318 323 325 325 326 327 329 329 329 329 328 328 328 328 327 327 327 326 325 325 325 323 321 320 320 319 319 318
317 317 316 318 314 312 315 314 316 320 319 320 318 317 320 324 327 323 319 327 328 320 316 313 319 326 319 310 311 311 311 312 316 317 317 319 319 319 323 324 323 323 321 319 320 319 311 308 311 314 314 315 313 313 314 313 311 312 317 322 323 324 325 326 327 328 328 327 326 327 326 326 326 326 325 325 324 324 322 320 319 319 319 319 318 317
317 316 317 318 314 312 313 314 316 316 318 318 314 318 321 316 324 323 313 319 321 316 318 315 316 322 315 311 314 311 312 313 314 317 317 319 320 320 324 324 322 322 320 318 318 316 310 307 311 313 315 316 315 314 315 315 313 313 317 320 322 323 323 324 325 325 325 326 325 324 324 324 324 324 324 324 323 321 319 318 318 318 316 316 315 314
318 318 317 316 314 314 312 312 316 315 316 318 315 319 318 312 320 324 316 318 318 316 322 315 313 318 314 316 319 312 313 316 313 315 317 317 318 320 322 322 320 319 316 315 314 310 306 306 309 311 313 315 316 316 317 317 316 316 317 320 320 321 321 322 323 323 323 324 323 323 323 323 323 323 322 321 319 318 316 315 315 314 313 312 311 310
319 320 317 315 316 318 316 315 316 314 312 316 318 317 317 316 319 318 315 319 316 315 321 315 311 317 315 318 322 314 315 319 312 312 316 318 319 320 320 320 318 315 314 313 313 310 306 304 307 309 310 312 315 316 317 318 317 317 318 318 318 319 320 320 321 322 322 322 322 322 322 321 320 319 318 317 315 315 313 312 312 311 310 309 308 307
318 323 319 314 314 316 318 317 318 317 312 314 316 313 315 321 321 317 316 318 317 315 320 315 311 320 321 318 321 317 317 317 311 312 315 316 318 318 319 320 316 314 314 312 312 311 306 303 306 308 309 310 312 315 317 317 317 316 316 316 317 317 318 319 319 320 320 320 320 319 318 316 315 315 315 313 313 312 311 311 310 309 307 306 306 305
314 320 321 316 313 313 316 316 317 319 315 316 316 313 314 315 316 319 318 318 320 321 323 317 314 327 328 316 315 316 315 313 311 313 314 312 315 316 316 317 315 313 313 310 310 310 304 303 306 307 307 308 310 312 314 315 315 315 314 314 315 316 316 316 317 317 316 316 316 315 314 314 313 313 313 312 311 310 309 308 307 306 305 305 305 304
314 316 320 318 315 316 318 316 315 317 317 317 316 316 318 316 318 319 315 316 319 318 323 320 318 332 330 314 313 314 311 310 310 311 311 311 313 315 314 314 313 312 312 309 309 308 302 302 304 305 306 306 307 308 309 311 312 312 312 313 313 315 315 315 314 314 314 313 314 313 312 312 312 311 310 309 308 307 306 305 305 304 304 303 301 300
320 320 322 319 316 319 320 315 313 314 316 316 314 316 319 318 320 320 317 320 317 311 317 318 316 330 333 317 314 315 312 311 309 308 309 310 311 313 315 313 311 311 310 308 307 304 301 302 304 304 304 305 305 306 306 308 309 309 310 311 312 313 312 312 312 311 311 311 311 310 309 309 309 308 307 306 305 305 304 304 303 302 300 299 298 297
320 320 320 318 316 318 320 317 314 312 313 315 316 317 317 316 323 327 327 326 319 313 315 314 313 328 335 323 317 317 315 314 312 308 307 310 312 313 314 314 312 311 309 308 306 302 301 302 302 302 303 303 303 304 305 306 306 307 308 308 310 310 309 309 309 308 308 308 308 307 307 307 306 304 304 304 304 303 302 301 300 298 297 296 296 295
318 318 318 318 317 318 319 318 316 313 313 317 320 318 317 318 321 323 320 316 315 319 318 314 319 327 329 322 317 317 316 314 312 309 307 311 313 313 313 312 312 311 309 308 307 304 302 301 300 301 301 302 302 303 303 304 305 305 306 306 307 307 307 307 307 306 306 306 305 305 304 303 303 303 303 303 302 301 299 298 297 296 295 295 294 294
320 321 317 317 318 317 317 317 316 316 315 317 318 316 316 318 316 316 318 314 316 319 316 316 324 324 321 319 315 314 315 313 312 310 309 311 313 313 313 312 311 310 308 307 307 306 304 301 300 300 301 301 301 302 302 303 304 304 304 305 305 305 305 305 305 305 304 304 303 302 302 302 302 302 301 300 299 297 297 295 295 294 294 294 294 294
324 323 315 315 316 315 317 317 318 319 316 315 318 318 318 318 316 318 321 320 321 320 316 322 326 317 315 318 317 317 318 315 315 313 311 312 313 313 312 311 310 309 307 307 306 305 305 303 301 300 300 301 300 301 302 302 303 303 303 303 303 303 303 303 303 303 302 302 301 301 301 300 300 299 298 297 296 295 295 294 294 294 294 293 293 293
324 320 315 315 315 314 317 318 318 317 314 314 317 318 319 319 317 319 318 319 324 320 316 324 324 315 313 318 320 321 319 318 318 314 311 313 313 314 313 311 310 309 307 307 306 306 306 305 302 300 299 300 300 300 301 301 302 302 302 301 301 302 302 302 301 301 301 301 300 299 299 298 297 296 296 295 295 294 294 294 294 293 293 293 293 293
320 318 316 316 315 315 316 316 316 316 314 314 315 315 317 318 318 318 316 317 320 317 313 318 321 316 314 317 321 322 319 317 315 312 312 314 314 314 313 313 312 310 309 307 306 306 306 305 302 299 299 299 299 299 300 300 300 300 300 300 300 301 301 301 301 300 300 299 298 297 297 296 295 295 294 294 294 294 294 293 293 293 292 292 292 292
317 318 318 315 314 316 318 317 316 316 314 314 315 315 314 316 316 316 315 315 316 316 314 315 316 316 314 316 320 319 316 314 311 311 314 316 316 314 314 313 312 310 309 308 306 305 305 304 301 299 298 298 298 298 299 299 299 300 300 300 299 300 300 300 300 299 298 298 297 296 295 294 294 294 294 294 294 293 293 292 292 292 292 292 291 291
314 316 315 314 313 315 318 319 316 316 316 315 316 316 315 315 315 315 315 315 314 315 315 314 316 316 314 315 316 314 313 311 311 314 315 314 314 313 313 313 312 311 309 308 307 306 306 304 300 298 298 297 297 298 298 299 299 299 299 299 299 299 299 299 299 298 297 296 295 295 294 294 294 294 293 293 293 292 292 292 292 292 291 291 290 290
316 315 313 315 316 314 316 319 317 314 314 315 317 318 316 315 315 314 314 314 314 314 315 315 315 313 313 317 316 314 314 314 315 315 312 312 314 313 314 313 312 311 310 308 307 306 306 304 300 298 298 297 298 298 298 298 299 298 299 298 298 298 297 297 297 296 296 295 294 294 294 294 293 293 292 292 292 292 292 291 291 291 290 290 289 289
321 318 317 318 317 315 314 316 317 316 314 315 315 315 314 314 314 314 314 315 314 314 314 314 313 312 317 320 317 315 316 316 318 315 310 312 315 313 312 313 312 311 310 309 308 307 306 304 301 299 299 298 298 298 298 299 299 299 299 298 298 297 296 296 296 295 295 294 294 294 293 293 293 292 292 292 291 291 291 291 290 290 289 289 289 289
322 321 320 319 317 317 314 313 317 319 316 315 317 316 314 313 314 314 314 314 313 313 313 312 312 314 318 319 317 316 317 317 317 314 310 312 316 315 313 312 312 311 310 309 308 307 304 302 301 300 300 299 298 298 298 299 299 299 298 297 297 296 295 295 295 294 294 293 293 293 292 292 292 292 291 291 291 291 290 290 290 289 289 289 288 288
320 320 321 321 321 319 314 314 318 319 316 318 321 318 313 312 313 314 314 313 312 313 313 313 314 315 316 317 315 314 315 315 315 314 312 311 314 316 315 313 311 311 310 309 309 307 304 302 301 300 299 299 299 298 298 298 298 297 297 296 295 295 294 294 294 293 293 293 292 292 291 291 291 291 291 290 290 290 289 289 289 289 288 288 288 288
318 320 321 322 321 317 314 315 318 317 316 319 320 315 312 313 313 313 314 314 313 314 313 313 312 312 315 316 314 314 316 315 313 315 314 311 311 314 315 314 312 311 310 310 308 306 304 303 302 301 300 299 298 297 297 297 297 296 295 295 294 294 294 293 293 292 292 292 291 291 291 291 291 291 290 290 289 289 289 289 288 288 288 288 287 287
317 320 321 318 317 319 318 317 317 317 316 317 318 316 315 315 315 314 315 315 315 315 314 312 312 311 313 313 312 313 315 313 312 316 316 313 311 311 313 313 312 311 309 307 306 306 304 304 303 301 300 299 297 297 296 296 296 295 294 293 293 293 292 292 292 291 291 290 290 290 290 290 291 290 289 289 289 289 288 288 288 288 287 287 287 286
315 318 319 316 318 322 321 318 318 318 314 314 318 318 316 317 317 315 315 317 318 316 313 313 313 312 312 313 313 314 313 312 314 316 315 316 314 311 311 310 307 306 307 306 305 305 304 303 302 300 299 298 297 296 296 296 295 294 293 292 292 291 291 291 290 290 290 289 289 289 290 290 290 289 289 288 288 288 288 288 288 287 287 287 286 286
317 318 317 316 319 320 319 318 317 316 314 316 320 319 317 318 318 316 316 318 317 316 315 313 312 313 314 314 315 315 314 314 315 312 313 319 317 309 308 309 305 303 305 306 305 305 304 302 301 299 298 297 296 296 295 295 294 293 292 291 291 290 290 290 289 289 289 289 289 289 289 289 289 289 288 288 288 288 288 287 287 287 286 286 286 285
316 316 315 316 318 317 316 317 317 316 316 320 322 318 315 315 316 318 319 317 316 319 318 313 313 315 315 314 314 314 314 315 314 314 318 322 318 308 305 307 305 301 302 304 304 304 303 301 299 298 297 297 296 295 295 295 293 292 291 290 290 289 289 289 289 289 289 289 288 288 288 288 288 288 288 288 288 287 287 287 286 286 286 285 285 284
316 316 315 315 316 316 316 316 317 317 319 324 323 315 312 314 315 318 318 317 319 321 315 313 315 314 312 314 313 311 313 316 317 316 313 313 315 309 301 299 300 300 300 302 302 302 301 299 299 298 297 296 296 295 294 294 292 291 290 289 289 288 288 289 288 288 288 288 288 288 288 287 288 288 287 287 287 287 286 286 286 286 285 285 284 284
316 317 316 314 315 316 316 316 317 317 319 321 317 310 311 314 316 318 320 321 324 323 316 315 318 315 312 314 312 310 316 319 314 311 307 307 313 313 300 294 296 297 297 298 299 299 299 297 296 297 295 295 295 294 293 293 291 290 289 288 288 288 288 288 287 287 288 288 287 287 287 287 287 287 287 287 286 286 286 286 285 285 284 284 284 283
314 315 315 313 314 316 316 315 317 317 315 314 312 310 311 316 323 329 327 321 319 322 320 319 320 317 314 314 312 313 319 319 312 309 307 305 307 307 299 295 295 294 293 295 296 296 297 295 294 295 294 293 293 293 292 292 290 289 288 288 287 288 287 287 287 287 287 287 287 287 286 286 286 286 286 286 286 286 286 285 284 284 284 284 284 283
314 315 315 314 314 317 316 315 319 320 313 310 313 313 311 315 325 330 324 318 318 319 321 322 323 320 316 315 315 314 317 319 313 309 308 306 304 302 298 294 292 292 293 294 294 294 295 295 293 292 292 292 292 292 291 291 290 288 287 287 287 287 287 286 286 286 286 286 286 286 286 286 286 286 286 285 285 285 285 284 284 284 284 284 283 282
313 314 317 316 315 316 315 315 319 320 313 309 314 316 314 317 319 317 320 323 323 319 317 320 323 321 315 314 315 314 315 317 314 309 310 310 305 301 297 293 290 291 292 292 292 293 293 292 291 290 290 290 291 291 290 290 289 288 286 287 287 287 286 286 285 285 286 286 285 285 285 285 285 285 285 285 285 284 284 284 284 284 283 283 282 281
313 314 316 316 315 314 313 313 314 314 311 310 311 310 312 317 315 312 318 323 321 318 316 318 323 323 315 311 314 317 315 315 315 310 306 304 300 295 293 291 289 290 291 290 290 291 291 290 290 289 289 289 289 290 289 289 289 288 287 287 287 286 286 286 285 285 285 285 285 285 284 284 284 284 284 284 283 284 284 284 284 283 282 281 280 279
312 312 313 315 315 314 315 316 315 313 313 313 311 306 307 312 312 311 315 318 316 314 313 312 315 316 310 310 320 325 317 312 315 312 302 297 297 295 292 290 288 288 289 288 288 289 289 288 288 287 287 287 288 288 289 288 288 288 287 287 286 286 285 285 285 285 285 284 284 284 284 284 284 284 283 283 283 283 283 283 282 281 280 279 279 279
312 311 313 317 316 314 315 313 310 311 311 309 310 311 311 312 313 310 310 311 310 309 307 306 307 308 306 308 316 323 318 310 310 310 302 295 296 294 291 288 287 287 288 287 287 288 288 287 287 286 286 286 287 287 287 287 286 286 287 287 286 285 285 285 285 285 284 284 283 283 283 283 284 283 282 282 282 283 283 282 281 280 279 278 278 278
311 310 314 317 315 312 311 308 307 311 311 307 309 312 311 311 313 311 307 306 308 308 306 304 304 303 304 305 306 315 320 309 301 302 300 296 294 293 290 288 287 286 286 286 286 287 287 286 286 286 285 286 286 286 286 286 286 286 287 287 286 285 285 285 284 284 283 282 282 282 282 282 282 282 282 282 282 281 281 280 280 279 278 278 278 278
310 312 313 314 314 313 313 311 310 314 315 312 310 309 305 303 306 308 307 306 308 308 307 308 306 301 300 300 300 309 319 310 297 296 298 295 292 291 288 287 287 286 285 285 285 285 286 286 285 285 285 285 285 285 286 285 285 286 286 286 285 284 284 284 283 282 282 281 282 282 282 281 281 281 281 281 281 280 280 278 277 277 277 278 277 277
313 315 313 313 314 314 315 313 312 316 318 311 306 305 302 300 304 309 309 307 306 305 305 308 308 305 304 300 295 299 311 310 298 296 298 295 290 289 288 287 286 285 284 284 284 283 284 284 284 284 284 284 284 284 285 284 284 284 284 284 284 284 284 284 283 282 281 281 282 282 281 281 281 280 280 280 280 279 279 277 277 277 277 277 276 276
Wind_Speed
2 6 7 12 14 17 16 11 8 9 9 5 4 4 6 6 5 6 4 5 4 6 6 9 9 10 9 8 8 6 4 6 8 7 7 7 7 8 9 9 10 11 12 15 20 23 27 31 31 32 32 33 32 32 33 33 34 35 35 35 35 35 35 35 34 32 31 31 30 29 28 28 28 27 25 24 24 23 22 21 21 21 20 21 21 21
2 9 15 16 15 16 15 10 7 11 13 8 4 4 5 6 5 5 3 3 1 3 6 6 7 9 9 9 5 4 5 8 10 9 9 10 9 8 9 11 11 9 8 9 13 19 24 27 29 30 31 31 32 33 34 34 34 35 35 36 35 34 35 35 35 34 33 33 32 31 30 30 29 27 27 25 24 23 22 21 21 20 19 19 19 19
6 11 14 11 10 12 10 8 8 12 12 8 5 4 5 4 3 2 2 3 2 2 4 3 6 9 9 8 4 5 8 9 10 11 11 11 10 9 9 11 10 8 7 7 10 16 22 25 27 28 30 32 33 34 35 35 35 35 35 36 35 35 35 35 35 34 34 33 32 31 29 28 27 27 27 26 24 22 22 21 20 20 19 19 18 17
8 8 7 8 7 10 8 9 9 9 9 7 5 5 4 3 4 1 3 2 2 1 1 4 4 6 6 5 6 8 9 6 7 9 10 9 9 11 11 10 10 11 11 9 9 12 18 22 24 27 29 32 33 33 34 35 35 36 36 36 36 36 35 35 35 35 34 32 30 30 28 26 25 25 25 24 23 22 22 21 20 20 19 18 18 16
6 1 6 8 8 9 7 10 10 7 6 6 6 6 3 4 5 3 2 2 2 2 2 5 0 6 5 5 7 7 5 5 7 7 8 9 9 9 8 8 10 11 11 11 10 10 15 20 24 27 30 31 32 33 35 36 36 36 37 37 37 36 36 36 35 35 33 31 29 28 27 25 24 24 24 23 24 24 23 22 21 19 17 15 15 15
5 1 9 11 9 9 8 10 11 7 5 6 6 8 7 8 7 4 6 6 3 3 2 3 2 6 5 5 10 7 4 6 6 7 11 11 9 8 8 8 8 9 9 9 10 11 15 20 23 26 28 29 31 34 36 36 36 37 37 37 36 35 35 35 35 34 32 31 30 29 28 27 24 24 24 24 23 22 22 21 19 16 14 13 13 13
4 3 9 11 10 10 9 11 12 8 5 5 6 9 10 9 7 8 10 6 4 4 3 3 5 6 5 4 10 6 5 9 7 7 11 10 9 9 9 9 8 8 8 8 8 9 13 18 21 23 27 30 32 35 35 34 35 35 35 35 35 35 35 35 34 33 32 31 31 30 30 29 27 25 24 23 21 19 18 17 16 14 13 13 12 11
6 7 8 10 10 9 9 11 12 8 6 6 4 8 9 9 10 10 11 6 3 3 1 2 4 3 5 6 7 2 4 9 8 9 11 10 10 11 10 9 9 9 9 8 8 8 11 17 21 24 29 31 33 33 32 32 33 34 35 35 35 35 34 34 33 33 32 32 31 30 29 29 28 26 24 20 18 15 14 13 12 11 11 12 11 10
7 10 8 11 11 9 10 12 11 8 6 7 4 8 7 9 10 10 9 4 1 3 2 3 3 3 5 6 5 1 3 7 9 12 14 13 13 11 11 10 9 8 7 7 8 8 11 17 22 25 28 29 30 29 28 29 30 31 32 32 32 33 34 33 33 32 32 32 31 30 28 27 26 25 22 19 15 13 11 10 9 9 9 9 9 9
4 6 8 11 9 7 11 13 11 9 7 5 5 6 4 4 4 4 6 5 3 3 6 7 5 4 5 5 3 0 2 7 9 11 13 13 11 9 10 10 8 6 6 6 6 8 11 14 18 20 21 23 24 24 25 25 26 27 28 28 30 32 32 32 32 32 31 31 30 29 28 27 25 22 20 17 14 12 11 10 10 9 9 9 8 8
2 3 4 6 6 5 8 10 8 8 7 5 7 6 6 5 4 3 2 4 4 4 7 7 6 4 4 5 4 4 5 7 7 7 8 9 9 9 9 8 7 6 5 5 4 5 7 9 12 14 16 18 20 21 22 22 22 24 25 26 27 29 30 30 30 30 30 30 30 29 28 27 25 22 19 17 14 11 11 12 11 11 10 9 8 7
3 3 2 2 4 4 4 6 3 4 6 6 5 4 5 3 3 3 3 2 4 6 6 5 3 4 4 5 4 5 6 6 7 7 8 9 9 9 7 6 6 6 5 5 4 5 6 7 8 11 13 14 16 18 19 20 21 22 23 25 25 26 27 27 27 28 28 29 29 28 26 26 25 23 20 17 14 13 13 13 12 11 10 9 8 8
3 2 1 0 3 5 4 4 1 1 5 4 5 6 5 1 1 2 2 2 5 5 3 2 2 3 5 7 7 8 9 7 7 8 7 8 8 7 7 7 6 5 5 5 5 5 5 7 9 11 12 13 15 17 18 19 20 20 22 23 25 25 25 25 25 25 26 27 26 25 23 22 22 20 19 17 16 15 14 13 12 11 11 10 10 10
2 2 2 2 2 4 6 5 3 3 5 5 7 8 6 4 4 5 4 1 3 4 2 2 2 2 4 5 8 10 9 7 7 7 7 7 8 8 7 6 5 5 5 4 5 5 4 7 9 11 13 14 16 17 18 19 20 21 21 23 25 24 23 23 22 23 24 24 23 22 21 20 19 18 18 18 17 16 14 13 11 10 10 10 9 9
7 3 5 7 3 3 5 5 4 5 5 4 3 6 6 5 5 5 4 3 4 2 2 2 1 4 3 3 6 8 7 5 5 6 4 3 4 5 4 4 5 5 4 4 4 4 5 8 10 11 13 14 16 17 18 19 21 21 21 22 24 23 21 21 21 22 22 21 21 20 20 19 18 19 18 17 16 15 15 13 11 9 8 8 8 8
7 2 1 3 2 4 4 4 1 5 5 4 1 4 5 5 5 3 3 5 5 2 1 2 3 4 4 4 5 3 4 4 3 4 1 2 3 5 5 4 5 4 4 4 4 3 4 7 9 11 12 13 14 16 17 19 20 21 21 21 22 22 21 21 21 22 21 21 20 20 19 19 19 19 19 18 16 14 13 12 11 10 9 9 8 8
6 1 3 1 1 2 3 3 1 2 5 2 3 4 4 3 7 5 2 1 4 2 2 2 2 4 3 4 5 4 4 4 3 3 0 3 3 5 5 5 4 4 4 4 4 4 4 7 9 10 11 12 13 15 16 18 19 21 22 22 22 22 21 21 22 22 22 22 21 20 20 20 19 19 19 18 17 14 12 12 11 11 10 9 9 8
5 2 2 1 3 4 2 2 3 2 3 4 3 5 2 2 4 4 3 2 3 3 4 1 3 4 1 3 5 5 5 7 5 3 2 3 4 5 5 5 5 5 4 3 3 4 5 8 10 11 12 13 14 15 16 17 19 21 23 23 23 22 22 22 22 23 23 22 22 22 21 21 19 19 18 16 15 14 13 13 12 11 11 10 9 8
4 3 3 1 3 3 2 2 3 3 3 3 3 3 3 3 2 1 3 2 2 3 3 2 3 3 4 4 4 4 8 9 7 5 5 6 7 6 6 6 5 4 4 4 4 4 5 8 11 12 12 12 14 16 16 18 19 21 22 23 23 23 22 22 22 23 22 22 22 21 20 19 18 17 17 16 15 14 14 14 13 12 12 11 10 10
5 4 2 2 1 2 3 1 3 3 2 1 1 1 2 2 4 3 3 4 4 4 3 2 2 3 5 6 6 9 11 10 8 7 8 9 9 7 7 6 6 6 5 5 5 4 5 9 11 13 14 14 15 17 17 18 19 20 21 21 22 22 22 22 21 21 21 21 21 21 19 18 17 17 17 16 16 15 15 14 13 13 13 13 13 13
4 4 2 1 2 1 1 2 4 5 3 1 1 2 2 1 2 2 0 2 4 3 3 2 1 5 6 5 9 11 9 7 9 9 9 9 8 8 7 7 7 6 6 6 5 5 6 10 12 13 14 15 16 17 18 18 19 20 20 21 22 22 22 21 21 20 20 20 21 21 20 18 18 17 17 17 16 16 16 15 15 15 16 16 16 15
3 3 4 3 1 3 3 3 2 4 3 3 3 4 5 2 3 3 2 1 2 3 4 4 2 7 6 4 7 9 4 4 7 9 8 7 9 9 7 7 7 7 6 6 6 6 7 11 13 14 15 16 17 18 18 19 20 21 22 22 23 24 23 23 23 22 22 22 21 20 20 19 19 18 17 18 17 17 18 18 17 17 17 18 17 16
3 4 4 2 3 4 5 3 2 3 2 2 3 3 3 3 4 5 5 3 1 1 2 4 2 6 6 4 5 5 4 4 6 7 8 7 8 8 7 6 6 6 6 6 6 6 9 12 14 15 15 15 17 18 19 20 21 22 23 23 24 25 24 24 24 23 22 22 22 21 21 21 20 19 19 20 20 21 21 20 19 18 17 18 17 15
3 4 4 1 1 2 4 4 2 1 1 2 4 3 3 3 3 5 5 4 4 3 3 3 2 6 6 3 3 4 5 5 5 7 8 6 5 6 7 7 6 6 6 6 6 7 10 12 13 14 15 15 16 18 19 20 21 22 23 23 24 25 25 24 24 24 24 24 24 23 23 23 22 22 23 23 23 23 22 21 20 18 17 17 16 15
2 3 4 4 2 1 2 3 4 4 4 3 3 2 2 3 5 3 1 2 2 4 5 5 4 6 6 4 3 4 4 5 5 5 7 6 6 6 7 6 7 7 7 7 6 6 8 9 11 12 14 15 17 18 19 20 21 22 23 24 25 26 25 25 25 25 26 26 27 26 25 25 25 25 25 25 24 23 22 21 19 18 17 16 15 15
4 4 5 6 8 8 8 7 6 5 3 1 1 0 2 4 6 4 2 2 3 4 4 6 5 6 7 6 6 5 4 4 4 3 5 6 6 7 7 7 7 7 8 9 8 7 7 8 10 12 14 16 17 19 20 21 22 23 23 24 25 26 27 27 27 27 28 28 29 29 28 28 27 27 26 25 24 23 21 20 19 18 17 15 15 15
4 4 7 10 11 10 7 4 6 8 5 5 5 4 5 6 6 4 3 3 5 3 3 5 6 5 8 7 6 6 4 5 4 3 5 5 6 7 7 7 6 6 7 8 7 7 7 8 10 13 15 17 18 20 22 23 24 24 24 25 26 27 28 29 29 29 30 30 30 30 29 28 28 27 26 25 23 22 20 19 18 17 16 15 15 14
4 4 9 11 10 9 8 7 9 12 12 13 12 10 9 8 7 6 5 7 6 4 5 8 6 7 10 8 7 8 6 5 6 6 6 6 6 6 6 6 6 6 7 7 8 9 9 9 9 13 16 18 19 21 22 23 24 24 26 27 27 28 29 30 31 31 31 31 31 31 30 28 27 26 25 23 22 21 20 19 17 17 16 15 14 14
5 5 7 8 6 5 7 9 11 13 13 15 16 16 15 12 12 12 12 12 9 7 10 11 10 12 11 7 8 9 7 7 7 6 4 4 6 7 7 8 8 8 9 10 10 10 10 9 9 13 17 19 21 22 22 23 24 25 26 28 29 30 31 31 32 32 32 32 31 31 29 28 27 25 24 23 22 21 20 19 18 17 16 15 14 13
4 4 4 7 6 2 2 6 9 11 11 11 13 16 16 14 15 16 16 15 12 12 14 11 10 11 9 8 9 6 5 5 3 2 4 6 8 9 9 10 10 11 11 12 12 11 10 9 10 14 18 20 22 23 24 25 25 27 28 29 30 31 31 32 33 33 33 32 32 30 29 28 26 25 23 22 22 21 20 19 18 17 15 14 14 13
1 3 2 5 6 2 2 1 6 9 9 9 10 11 12 13 15 16 17 14 10 11 12 8 7 9 7 7 8 3 3 3 2 4 7 7 8 9 10 10 11 12 12 12 11 10 8 8 11 15 18 21 24 26 27 28 28 29 30 31 32 33 33 33 33 33 33 32 31 30 29 27 26 24 23 23 22 21 20 19 17 16 15 14 14 13
2 1 2 5 5 4 1 3 6 5 3 6 10 11 13 13 13 13 12 10 9 11 11 8 9 10 5 4 6 4 4 5 6 7 7 5 7 10 11 12 13 13 13 13 11 10 11 11 13 18 21 25 28 29 30 31 31 31 32 33 34 34 34 33 34 34 33 32 31 30 28 27 26 25 24 23 22 21 19 18 17 16 15 14 13 12
5 4 2 4 5 4 1 4 7 6 2 7 11 13 16 14 11 10 9 9 11 11 10 11 11 7 4 6 7 5 5 7 9 8 6 6 8 10 12 13 14 14 14 13 12 13 13 14 18 23 27 29 31 32 33 34 35 35 35 36 35 35 35 34 34 34 33 32 31 29 28 27 26 26 24 23 22 20 19 17 16 16 15 14 13 11
6 7 4 4 5 3 2 3 6 5 6 8 5 9 16 16 14 14 12 14 14 11 9 9 6 3 6 8 8 7 8 9 10 8 7 7 8 10 11 12 13 13 13 12 13 14 15 18 22 25 27 29 31 32 33 34 35 35 35 36 36 36 35 34 34 34 33 32 30 29 28 27 26 26 24 22 21 19 18 17 16 15 14 13 12 11
8 7 4 3 3 3 2 4 6 8 9 4 3 2 11 15 17 17 16 15 15 13 12 11 8 6 7 9 8 8 10 10 7 7 7 7 9 11 12 13 13 12 11 11 12 13 15 19 22 23 27 30 31 32 33 33 33 34 35 36 36 35 35 34 34 33 32 32 30 29 28 27 26 25 23 22 20 19 18 16 15 15 13 12 11 9
8 6 4 3 3 3 3 5 8 7 5 5 5 2 3 5 6 8 11 11 10 10 11 13 14 10 8 9 7 4 4 5 5 6 8 8 9 10 11 12 14 13 13 15 16 18 22 28 30 31 33 33 32 34 34 34 34 34 35 35 35 35 34 34 33 32 32 32 30 29 28 26 25 24 23 22 20 19 17 16 15 14 12 11 10 9
8 6 4 3 2 3 3 4 4 5 7 6 6 3 4 5 6 7 7 9 8 9 10 12 14 12 10 11 6 2 2 1 4 7 9 9 9 11 12 12 13 13 14 18 21 24 29 32 32 32 32 32 33 35 35 35 35 35 35 34 34 34 33 33 33 33 32 31 30 29 27 26 25 24 22 21 20 19 17 15 14 13 11 10 9 8
5 5 6 5 2 4 4 2 2 5 8 7 5 4 5 7 8 10 6 7 8 11 12 12 14 13 10 10 5 4 4 0 4 9 9 8 10 12 12 11 10 9 11 14 18 20 23 26 27 28 30 32 33 34 35 36 36 35 34 33 33 33 33 32 33 32 32 31 30 29 27 25 24 23 22 21 19 18 17 15 13 12 10 9 7 7
4 1 5 6 2 3 5 3 4 7 8 4 7 6 7 9 9 9 2 7 7 10 12 12 12 10 9 9 6 7 5 4 8 9 6 7 9 9 10 9 7 7 10 14 18 21 23 26 27 28 30 32 33 34 36 37 37 35 34 33 33 33 32 32 32 32 32 31 29 28 26 25 23 22 21 20 19 17 16 14 12 10 9 7 7 7
5 3 4 7 5 5 6 5 5 6 6 5 8 8 8 10 11 10 2 9 7 9 10 12 12 11 11 10 8 8 8 8 8 7 4 4 4 3 5 7 7 8 10 14 18 22 25 28 29 31 33 35 37 38 38 39 37 35 34 33 32 31 31 32 32 32 31 30 28 27 26 24 23 22 21 20 18 17 15 13 11 9 8 7 6 7
3 2 3 6 6 6 7 6 4 5 6 6 6 7 10 10 9 7 9 8 7 8 7 9 12 13 10 9 7 8 9 6 3 3 3 0 3 2 1 3 6 8 11 15 19 22 27 29 31 34 35 36 37 38 39 39 36 33 32 32 31 30 31 32 32 31 30 29 28 27 26 24 23 21 20 19 17 16 14 12 10 8 7 6 6 6
3 2 1 3 5 4 4 4 4 7 6 6 4 4 7 8 5 8 8 2 5 8 5 6 10 10 7 9 9 8 5 1 0 1 2 2 4 3 2 5 7 7 9 14 18 23 27 26 26 28 29 32 36 39 40 39 35 32 31 31 30 30 31 32 31 30 29 28 27 26 25 24 22 21 20 19 17 15 13 11 9 7 6 6 5 5
7 6 3 5 5 3 3 4 4 7 5 9 10 4 4 6 6 6 3 1 4 6 5 6 7 7 7 9 9 7 4 2 2 2 2 1 2 3 3 5 7 8 11 14 18 23 26 25 24 25 27 30 35 37 38 37 34 32 31 30 30 31 32 32 31 30 29 28 27 26 25 24 22 21 20 18 16 14 12 10 9 7 5 5 4 4
6 7 6 5 4 4 5 8 7 5 6 10 10 6 8 8 4 4 6 4 4 4 5 5 6 6 7 8 7 6 5 4 3 3 3 3 3 4 4 4 6 9 11 14 17 22 24 24 23 23 25 29 33 34 36 36 34 32 31 30 31 32 32 31 30 29 28 28 27 26 25 24 22 21 19 18 15 13 12 10 8 6 4 3 3 3
8 7 6 5 5 5 6 9 7 3 4 5 2 3 8 5 2 3 6 4 4 5 5 5 6 6 6 7 8 6 5 5 5 5 5 5 5 5 5 5 7 9 10 12 16 19 21 22 24 24 24 27 30 32 33 34 35 34 32 32 33 34 33 32 30 29 29 28 27 26 25 23 22 20 19 17 15 13 11 9 7 5 4 3 3 4
5 4 4 4 4 4 5 4 4 2 3 4 1 2 4 3 2 3 4 2 4 5 4 5 6 6 6 8 8 6 6 7 7 6 5 5 5 4 5 5 7 9 11 14 16 18 19 21 23 24 24 24 27 30 31 32 34 35 35 35 35 35 33 32 31 29 29 29 27 26 25 23 22 20 18 16 15 12 10 8 7 6 6 5 4 4
3 3 4 3 5 5 5 3 5 4 6 6 2 2 0 1 1 3 3 3 4 4 3 3 4 5 7 8 8 8 7 8 8 7 5 5 5 5 5 6 8 10 13 15 18 20 22 23 23 24 24 25 26 28 30 30 31 33 34 35 35 34 32 32 31 31 30 29 28 26 25 23 22 20 18 16 14 12 10 8 8 8 7 6 4 4
2 5 5 4 6 6 4 4 2 1 0 2 2 2 3 2 1 1 2 2 3 3 2 1 3 4 4 3 4 7 7 7 8 7 6 5 5 5 5 7 10 12 13 16 19 21 23 24 24 25 25 26 26 28 29 29 30 31 33 35 35 33 32 32 32 32 31 30 28 26 24 23 21 19 18 16 14 11 10 10 9 9 7 6 4 4
5 6 5 4 4 2 2 1 1 3 3 2 4 5 4 4 4 3 2 3 4 4 4 4 3 4 4 3 3 5 7 6 6 6 6 6 5 5 7 9 11 13 14 17 20 22 23 24 25 26 26 26 27 29 29 29 29 31 33 34 34 33 33 33 32 32 31 29 28 26 24 22 21 19 17 16 14 13 11 11 10 9 8 6 5 4
7 6 3 4 4 5 5 6 6 4 1 5 7 6 5 3 4 5 3 3 4 3 4 4 4 3 3 3 4 6 6 5 5 5 6 6 5 7 10 12 13 13 15 17 19 20 21 22 24 26 26 26 28 29 29 30 31 31 33 34 34 34 34 34 33 31 30 29 28 26 25 23 21 19 17 16 16 15 14 14 12 10 8 6 6 5
6 8 8 8 6 7 7 10 9 5 2 4 5 5 4 3 5 5 3 3 1 1 3 5 4 3 3 2 2 5 6 5 6 7 6 5 6 10 12 14 16 16 17 19 20 20 20 21 23 25 26 27 29 30 30 31 31 32 33 34 34 34 35 35 34 32 30 29 28 27 25 24 22 20 18 17 16 16 16 16 15 12 9 9 9 8
Wind_Direction
148 142 180 193 191 188 191 212 224 230 244 245 223 193 173 177 222 228 245 279 160 151 218 205 213 234 237 242 226 215 189 207 234 233 229 226 215 215 211 213 212 213 225 220 213 212 212 213 213 212 212 212 212 211 210 209 211 213 213 213 213 213 213 213 213 213 213 211 210 214 220 226 229 231 233 235 237 238 240 240 241 242 244 246 248 250
155 181 203 200 184 177 186 216 217 218 238 249 249 231 204 189 216 232 228 292 66 158 227 211 220 245 244 248 235 173 189 218 221 216 224 224 219 219 214 216 216 220 229 214 210 212 211 212 212 212 211 211 211 210 210 211 212 213 213 214 215 213 212 213 214 213 214 214 213 216 221 226 228 230 233 235 237 239 241 243 244 246 249 250 253 256
189 213 208 181 163 170 197 239 224 222 230 228 240 230 214 208 216 288 294 323 25 178 241 203 208 246 250 253 250 189 206 227 218 210 219 217 214 218 215 218 219 224 230 216 214 213 210 210 209 209 209 210 212 212 212 213 213 213 213 215 216 215 214 214 216 216 217 219 220 222 225 227 228 231 234 237 240 242 242 244 246 250 253 256 259 262
195 227 186 145 156 180 218 255 239 235 232 217 214 208 224 210 169 220 268 299 44 115 198 151 193 258 264 274 278 230 217 239 237 224 232 227 216 216 216 216 210 211 220 219 221 217 211 209 207 206 207 209 211 212 213 212 212 213 214 215 216 216 217 216 217 219 221 223 225 227 230 232 233 235 237 238 240 242 243 246 250 254 256 259 262 265
208 254 131 152 186 200 229 256 247 238 236 228 205 195 213 200 193 206 179 142 48 9 93 113 97 290 259 242 262 245 211 240 249 234 247 248 236 237 242 236 217 211 212 209 213 214 209 207 206 206 206 208 209 210 213 212 211 213 215 217 217 218 218 218 219 220 221 223 224 225 226 230 233 235 235 235 237 238 241 246 249 252 255 259 263 265
237 81 141 169 194 208 231 252 246 226 226 249 219 201 201 197 200 168 135 116 107 249 254 125 180 278 277 237 241 240 203 229 235 220 236 242 235 242 248 240 228 225 223 214 213 208 204 205 205 205 205 206 208 211 214 214 214 215 216 217 218 219 219 219 220 220 221 222 223 221 219 220 223 227 230 233 236 238 239 242 245 248 251 253 259 264
233 181 160 175 187 200 230 253 244 211 198 248 225 200 201 193 177 155 151 139 148 218 262 131 174 254 304 263 241 236 215 234 236 224 238 240 231 230 229 229 224 224 227 227 227 214 203 202 201 203 204 204 208 212 214 215 215 216 217 218 218 219 220 221 221 221 221 222 222 221 220 220 221 224 229 234 239 242 242 242 243 244 243 245 249 254
187 177 163 171 180 199 224 244 236 194 179 241 219 175 181 177 171 166 162 162 180 194 326 60 146 226 277 259 256 224 200 246 255 245 248 241 233 231 227 228 223 217 216 212 216 212 205 203 200 202 205 205 208 211 212 214 215 216 217 218 219 220 221 222 223 222 221 221 222 222 222 223 225 228 233 237 238 237 235 231 228 230 232 237 239 242
174 176 169 170 181 204 216 237 235 183 183 242 201 156 165 170 171 171 165 156 113 151 240 275 155 196 260 271 297 60 184 254 254 241 242 236 230 229 228 230 226 227 226 216 212 207 207 207 204 204 204 206 208 209 210 212 214 215 216 218 219 220 222 223 223 222 222 222 223 222 222 223 226 230 235 235 227 220 216 212 209 216 221 222 223 231
175 172 162 173 193 210 216 243 236 187 208 234 146 112 88 96 115 138 155 131 87 175 218 221 181 198 262 276 296 16 213 249 244 238 239 235 232 227 229 231 225 227 228 224 221 209 209 211 210 209 206 206 207 208 209 211 212 213 214 216 217 219 220 221 222 221 221 221 222 222 222 222 224 226 226 221 214 212 212 205 200 204 200 193 197 210
116 95 128 173 198 204 218 242 226 193 204 157 106 80 66 55 50 62 77 97 121 229 237 219 192 193 254 270 237 208 219 220 224 249 249 234 228 223 226 227 215 211 202 197 195 183 189 198 205 209 208 207 207 207 209 210 211 212 212 214 215 217 218 218 219 220 220 220 220 221 221 222 222 218 211 207 203 201 201 196 192 194 197 198 204 213
107 107 138 173 174 165 206 242 231 198 195 145 114 109 95 36 24 45 1 68 175 237 257 237 188 162 225 256 235 237 258 231 211 235 243 230 225 220 218 214 205 195 178 169 157 144 148 154 172 189 196 199 200 202 204 206 209 210 211 212 212 213 214 214 215 215 216 216 216 219 220 220 219 213 208 205 200 194 194 194 194 197 204 213 221 229
142 179 209 138 181 168 170 221 228 168 204 173 141 137 126 101 89 157 236 205 212 242 269 234 180 174 234 247 251 260 267 254 226 226 238 235 228 219 207 203 200 188 173 164 156 153 153 158 168 177 184 189 192 195 197 199 202 204 207 208 207 207 207 208 209 209 210 210 210 211 211 210 208 206 205 203 198 195 196 200 205 212 218 221 225 231
181 281 251 187 217 183 169 194 188 173 202 188 162 158 157 151 151 190 219 231 238 245 279 265 215 239 268 262 250 249 255 261 254 246 245 235 222 212 198 192 189 188 183 175 172 172 178 182 183 185 189 193 195 197 198 198 199 200 200 201 201 199 198 199 199 199 199 199 199 200 200 200 199 196 196 196 196 196 200 207 213 215 215 212 212 215
172 207 204 185 187 168 179 213 198 161 180 210 182 152 158 162 162 188 201 186 207 237 288 284 211 188 204 240 237 241 261 275 277 272 260 230 200 175 163 165 170 186 192 185 182 188 197 194 191 193 196 199 201 201 201 202 201 199 196 194 193 189 186 188 189 188 188 188 190 193 195 195 195 193 192 193 196 200 206 209 207 201 196 195 197 201
172 205 240 178 133 137 181 246 202 145 176 224 117 131 175 183 151 144 177 176 168 153 255 234 226 208 209 265 275 283 296 296 334 341 42 142 142 138 149 171 175 187 192 180 177 183 195 189 188 191 193 198 200 199 201 201 199 196 191 187 186 182 180 181 182 182 183 183 184 186 188 188 188 190 190 191 194 200 204 201 196 195 194 193 196 201
168 202 337 20 107 161 192 234 273 192 191 172 129 185 223 163 118 116 171 127 98 149 240 199 239 289 302 291 311 353 321 293 332 353 162 178 172 158 172 188 189 191 187 179 175 171 169 169 175 182 186 192 196 195 195 194 193 191 185 180 178 177 176 178 179 179 180 179 178 178 180 182 184 187 191 194 196 194 191 189 191 192 188 188 193 196
150 138 334 114 189 231 198 181 286 277 155 119 168 207 206 122 102 106 145 21 59 189 269 235 208 274 265 250 320 342 285 265 255 252 244 221 206 193 195 201 199 190 177 166 158 158 160 159 162 168 176 186 191 190 188 185 185 184 181 178 176 173 172 174 175 175 176 177 177 179 182 185 188 191 193 193 190 185 182 180 181 182 178 176 177 175
136 124 322 82 194 267 11 101 270 273 163 148 198 187 119 151 189 120 149 161 148 201 281 303 241 254 198 216 287 265 235 239 231 224 229 220 210 206 207 207 200 181 163 160 157 159 162 159 158 158 161 170 179 183 182 181 182 179 177 176 173 171 171 172 174 176 178 181 183 184 186 186 185 184 183 179 177 178 178 174 171 170 167 161 155 151
146 131 284 294 259 309 10 72 206 230 231 27 21 142 104 148 177 178 161 157 166 195 238 288 304 259 226 217 222 226 227 219 204 207 218 214 205 204 202 196 190 181 176 174 170 169 166 162 159 156 155 159 166 172 175 177 180 179 179 178 176 175 175 177 180 181 182 184 184 181 177 173 171 171 172 173 175 175 171 168 164 159 152 147 142 138
152 139 189 281 346 164 201 216 188 195 205 149 107 193 207 40 121 164 132 124 137 156 183 185 259 259 250 211 208 226 228 202 197 207 215 211 203 207 203 189 184 183 182 177 168 169 167 164 160 156 154 155 157 160 163 167 171 172 175 177 177 176 175 174 175 174 172 169 170 169 166 165 167 169 172 173 173 170 162 158 154 148 144 140 136 133
165 146 149 162 187 191 231 270 196 198 203 180 192 199 192 151 119 158 238 231 120 136 168 161 202 264 260 199 213 234 221 196 211 214 217 212 202 206 202 190 186 180 179 178 171 169 167 164 161 157 155 154 154 155 156 158 160 160 161 163 165 167 166 166 165 165 163 161 163 164 163 164 166 167 168 166 164 159 151 148 144 141 140 136 131 129
128 109 116 154 204 209 243 266 204 207 229 211 225 208 177 160 135 159 210 232 181 159 138 124 163 271 264 213 223 246 241 233 229 220 220 212 201 200 190 182 181 173 172 173 169 171 169 166 163 158 156 155 154 155 155 157 157 158 159 159 160 161 161 163 164 164 163 162 162 161 161 161 161 161 160 155 152 148 143 140 138 137 137 132 126 124
108 105 110 94 333 317 311 315 319 195 178 236 239 194 165 192 152 156 186 183 171 179 141 126 225 268 275 267 250 257 266 261 240 222 212 200 193 190 179 174 172 164 167 170 170 172 167 163 161 157 156 154 154 155 156 157 159 159 160 162 163 162 162 163 163 162 162 160 158 157 157 156 154 154 152 148 144 142 139 137 136 135 132 127 123 119
155 149 134 117 118 43 321 287 260 212 183 212 242 208 160 130 105 114 154 114 173 209 162 159 222 254 272 307 315 304 315 301 267 231 205 191 184 183 174 172 173 165 166 171 171 170 165 163 164 161 159 156 155 157 158 158 159 159 161 163 164 162 161 162 162 160 160 157 154 154 152 151 150 149 147 144 141 139 137 135 134 132 128 125 122 118
162 166 156 153 172 187 194 204 204 185 175 242 277 223 174 149 143 168 168 132 219 238 153 161 212 253 281 314 323 320 328 304 283 236 207 200 180 177 176 173 174 171 172 175 174 172 170 169 168 164 163 162 161 160 160 159 160 160 161 162 163 162 160 160 161 159 157 154 151 150 149 148 148 147 144 142 140 138 136 134 133 130 127 124 122 119
132 177 189 185 193 192 181 170 146 137 154 211 216 196 195 197 181 160 130 174 201 182 186 212 198 219 265 282 292 294 276 257 263 211 202 207 183 180 178 169 169 171 174 176 174 173 173 173 172 169 167 167 165 164 164 163 163 162 161 160 161 162 160 159 160 157 155 152 149 147 147 147 147 145 143 141 139 138 136 135 134 131 127 125 124 120
125 196 200 195 204 191 170 171 163 159 179 200 203 201 202 201 180 166 195 212 180 143 240 245 189 196 239 240 242 258 246 237 244 222 209 202 178 167 157 151 160 168 174 180 183 183 180 177 174 171 170 169 167 167 167 166 165 163 162 161 161 162 160 159 159 156 153 151 149 146 146 146 145 144 142 141 140 139 138 137 136 132 129 127 124 118
143 199 194 183 202 193 179 187 178 177 191 196 198 203 203 198 187 192 213 212 180 180 232 233 199 206 228 222 223 233 219 216 225 212 193 165 152 149 152 161 173 180 185 191 193 192 185 179 174 172 171 170 170 170 169 167 165 164 163 162 162 163 162 161 159 155 153 151 149 147 146 146 145 144 143 143 143 142 141 140 137 133 131 128 122 117
165 192 173 159 173 176 197 197 185 188 196 199 206 208 203 200 197 202 216 214 198 209 229 228 215 224 229 219 227 227 202 218 230 161 154 163 163 163 166 176 186 191 195 197 197 194 186 179 173 171 171 173 174 172 170 168 167 166 165 163 164 164 162 162 159 156 154 152 149 148 148 147 146 145 145 146 146 145 143 140 137 134 131 127 123 119
174 195 135 126 155 209 336 186 191 198 199 203 217 215 204 202 204 210 218 216 206 224 240 246 250 254 241 219 234 234 144 164 189 186 194 188 172 167 174 187 195 199 203 202 196 189 181 174 172 174 177 179 179 176 173 172 169 168 167 166 167 165 163 163 161 157 155 153 151 150 150 149 148 148 148 149 148 146 143 141 138 135 131 127 124 121
106 145 70 102 156 234 325 136 176 183 191 228 235 220 201 199 206 213 218 210 200 218 236 244 250 252 231 193 230 236 167 178 214 217 210 192 171 173 184 195 201 205 206 200 190 183 181 180 180 183 184 184 182 180 177 174 170 170 170 169 169 166 164 164 161 158 157 154 152 152 152 151 151 150 151 150 148 147 144 142 140 135 132 129 125 121
124 129 109 132 173 236 279 147 145 114 117 248 240 211 198 200 205 211 223 224 211 205 213 226 234 230 179 177 209 211 197 221 235 225 198 184 185 189 196 201 205 210 206 195 189 188 188 189 190 189 188 186 185 184 181 176 173 174 173 171 169 166 165 165 163 160 158 155 154 154 153 154 154 153 152 150 148 147 145 144 141 137 134 130 125 121
143 142 160 168 165 209 238 135 121 137 206 240 232 183 188 194 195 201 217 222 216 208 214 235 243 173 168 199 204 190 197 220 232 225 200 184 184 195 208 212 212 213 207 195 193 194 193 194 193 192 190 188 187 185 182 178 177 176 174 171 169 168 167 165 163 160 158 156 156 156 156 157 157 154 152 150 149 148 147 145 142 137 134 130 126 120
157 147 154 148 131 161 165 115 147 200 225 261 357 155 190 195 194 202 216 220 218 217 223 241 249 208 198 221 215 195 207 225 244 248 225 198 187 192 204 215 217 213 204 198 199 200 197 193 190 190 191 190 187 184 181 180 178 175 173 171 169 168 168 166 162 160 159 158 158 158 158 159 158 155 151 150 150 149 148 145 142 138 135 130 125 117
148 146 131 113 122 132 130 164 193 227 277 304 311 294 184 182 182 201 232 243 234 221 220 234 241 232 224 237 231 188 207 244 288 278 240 214 202 200 203 210 213 208 201 199 198 196 195 194 192 192 191 188 185 182 180 180 178 174 171 171 170 169 168 165 163 161 160 160 160 160 160 160 159 156 152 152 151 151 149 146 143 140 134 128 119 108
141 144 128 138 174 135 145 210 238 313 312 271 249 224 158 154 154 169 223 252 234 209 209 222 235 235 231 236 233 112 102 344 315 279 247 219 208 210 213 216 213 209 208 206 203 201 199 197 194 191 187 182 181 181 180 178 177 173 170 170 170 169 167 165 163 162 162 162 161 161 161 162 160 157 154 154 154 152 150 147 144 139 133 126 116 101
147 164 159 169 193 114 125 211 274 281 265 234 209 198 159 156 159 158 188 249 233 208 204 211 224 227 226 232 218 135 116 166 269 265 248 215 210 215 219 228 227 220 218 209 201 199 196 193 191 187 182 178 179 181 179 177 175 172 169 170 170 168 167 166 164 164 163 163 162 162 161 161 161 159 156 156 156 153 151 148 144 139 131 123 110 94
91 97 148 160 175 133 152 194 208 232 250 197 168 180 161 154 142 121 138 264 233 204 205 209 216 220 217 219 189 142 143 215 243 250 232 203 215 217 214 224 225 212 212 204 196 191 186 184 183 180 178 177 178 180 179 176 174 172 170 171 170 168 168 167 166 165 165 163 162 162 161 161 162 161 159 158 156 154 152 149 144 137 127 117 102 84
78 63 147 175 189 169 179 213 228 243 253 200 181 180 164 152 126 107 246 257 210 188 202 200 207 220 214 199 171 157 185 215 233 250 246 204 208 201 203 215 205 190 191 190 190 189 181 177 175 173 177 180 180 179 178 176 174 174 172 171 170 169 169 169 167 166 165 163 162 161 161 162 163 161 160 160 157 154 152 149 142 134 125 113 96 80
88 101 171 188 184 171 183 210 255 267 238 211 203 179 154 137 123 157 226 234 183 184 192 179 199 219 208 177 168 189 210 219 232 275 302 144 136 105 96 180 175 180 182 179 180 180 175 176 178 178 181 182 179 177 176 175 174 174 172 170 170 171 172 170 168 166 165 163 163 162 161 162 163 162 162 161 159 156 153 148 142 135 124 110 90 75
152 133 159 173 164 164 178 192 261 273 229 170 148 166 158 145 168 212 228 216 171 188 187 182 205 213 185 173 191 204 210 217 76 18 23 91 140 131 95 120 130 141 158 165 172 173 170 173 177 177 178 179 177 176 176 174 173 173 172 171 172 173 172 170 168 167 166 164 163 163 162 162 163 164 163 162 160 157 153 148 142 134 121 106 86 67
167 157 183 190 169 142 145 178 231 264 221 138 120 132 207 197 202 209 207 197 189 182 177 201 215 202 177 187 204 199 163 129 138 122 87 122 152 142 147 149 142 144 150 156 167 172 170 168 170 172 174 175 176 176 175 174 173 172 172 172 173 173 171 169 169 168 166 165 164 164 164 164 164 165 164 162 161 158 153 147 141 131 117 101 81 60
183 174 183 199 184 148 166 201 214 215 181 151 137 163 205 204 193 171 165 186 217 188 173 198 219 209 187 181 183 177 160 163 181 169 159 180 182 167 167 163 155 157 160 162 167 171 169 165 164 166 169 172 175 176 177 177 173 171 171 173 172 172 170 170 170 168 167 166 165 165 166 166 166 166 164 161 161 160 155 148 140 131 119 100 77 63
212 201 180 183 191 177 190 213 218 196 178 173 140 196 197 179 111 147 157 168 214 200 174 182 203 202 179 160 156 163 177 186 190 189 185 184 184 179 169 162 161 161 159 159 162 166 167 163 160 159 162 170 175 177 179 180 176 172 172 174 174 173 173 171 170 168 167 167 167 167 167 167 166 165 164 162 161 160 156 150 143 137 127 109 84 70
237 195 146 151 197 242 255 215 155 117 206 200 1 305 215 158 104 151 153 164 205 194 180 186 186 176 166 155 150 167 195 190 181 192 197 179 173 169 151 146 153 154 153 154 156 162 163 159 157 157 159 166 175 179 181 184 182 178 175 175 175 175 175 172 170 168 168 168 168 169 168 167 166 165 164 162 159 158 158 154 150 144 131 117 101 82
279 164 143 152 173 204 249 219 151 162 204 190 122 19 23 92 114 168 170 188 190 176 188 206 173 158 168 167 161 173 188 180 174 183 184 167 168 171 157 152 155 156 159 161 160 162 161 158 158 161 162 166 175 180 181 184 185 183 179 177 176 176 175 173 171 170 170 170 170 170 169 169 169 166 163 161 159 160 161 156 151 146 137 130 124 98
209 159 169 188 177 182 222 240 202 131 148 160 156 166 157 142 129 116 127 150 127 97 71 71 114 142 174 194 176 167 170 178 182 178 173 174 177 173 167 166 163 161 163 166 166 167 166 164 165 167 168 170 175 180 183 185 185 185 183 180 179 177 175 174 174 173 173 172 171 170 171 171 170 167 164 162 161 163 162 157 154 152 146 141 131 103
138 159 178 164 161 203 277 250 110 54 30 287 246 227 208 186 158 128 99 96 96 91 79 61 79 140 168 195 182 152 158 184 189 168 166 177 177 172 174 171 166 166 168 170 172 174 173 173 173 173 173 175 177 180 184 186 186 187 186 183 181 179 176 175 175 174 173 173 172 171 171 171 169 168 166 164 163 162 161 159 157 155 151 144 127 102
140 165 170 128 157 218 219 183 164 134 164 235 225 212 221 205 151 136 136 127 123 132 124 87 59 75 123 157 163 146 151 178 181 164 172 182 178 175 173 167 166 169 171 173 176 179 181 182 180 178 178 179 181 182 185 187 188 189 188 184 182 181 179 177 174 173 173 173 173 174 173 172 170 168 168 167 165 164 161 158 156 155 154 149 135 119
173 177 169 159 185 218 200 179 170 146 150 215 197 182 200 181 140 138 152 162 178 179 124 105 81 50 28 19 147 147 148 167 173 168 171 181 182 179 175 173 172 173 176 178 179 181 185 187 185 184 184 184 184 185 187 188 189 189 188 185 183 182 182 180 176 174 174 175 176 176 175 174 172 170 169 169 168 168 166 161 158 158 157 156 152 142